Date String (YYYY-MM-DD hh:mm:ss) UTC,Instrument flags,Ambient pressure (hPa),Sample flow (lpm),Bypass flow (lpm),Sample temperature (°C),Ambient temperature (°C),ASC tube jacket temperature (°C),LED temperature (°C),Box temperature (°C),Sample RH (%),Span deviation,Mass concentration (μg/m³),Mass concentration (μg/m³),Mass concentration (μg/m³)
DateTimeUTC,F1_M11,P_M11,Q1_M11,Q2_M11,T1_M11,T2_M11,T3_M11,T4_M11,T5_M11,U1_M11,ZSPAN_M11,X0_M11,X2_M11,X1_M11
2021-12-13 09:00:00,,0824.2,4.99,0.00,24.9,24.0,00.0,33.8,26.7,05.6,0000.0,0008.70,0001.31,0000.74
2021-12-13 09:01:00,,0824.3,5.01,0.00,24.9,24.0,00.0,33.8,26.6,05.6,0000.0,0008.47,0001.30,0000.75
2021-12-13 09:02:00,,0824.3,5.00,0.00,24.9,24.0,00.0,33.8,26.6,05.7,0000.0,0009.01,0001.27,0000.76
2021-12-13 09:03:00,,0824.3,5.01,0.00,24.9,24.0,00.0,33.8,26.6,05.7,0000.0,0009.45,0001.32,0000.76
2021-12-13 09:04:00,,0824.4,4.98,0.00,24.9,24.0,00.0,33.8,26.6,05.7,0000.0,0009.39,0001.35,0000.76
2021-12-13 09:05:00,,0824.4,5.01,0.00,24.8,24.0,00.0,33.8,26.6,05.7,0000.0,0009.01,0001.36,0000.77
2021-12-13 09:06:00,,0824.4,4.99,0.00,24.8,24.0,00.0,33.8,26.6,05.7,0000.0,0008.65,0001.35,0000.77
2021-12-13 09:07:00,,0824.5,5.00,0.00,24.8,24.0,00.0,33.8,26.6,05.8,0000.0,0008.16,0001.44,0000.77
2021-12-13 09:08:00,,0824.4,5.00,0.00,24.8,24.0,00.0,33.8,26.6,05.8,0000.0,0007.89,0001.49,0000.77
2021-12-13 09:09:00,,0824.4,4.99,0.00,24.8,24.0,00.0,33.8,26.6,05.8,0000.0,0007.93,0001.56,0000.79
2021-12-13 09:10:00,,0824.4,5.01,0.00,24.8,24.0,00.0,33.8,26.6,05.8,0000.0,0008.42,0001.58,0000.80
2021-12-13 09:11:00,,0824.5,4.99,0.00,24.8,24.0,00.0,33.8,26.6,05.8,0000.0,0009.52,0001.54,0000.79
2021-12-13 09:12:00,,0824.5,5.00,0.00,24.8,24.0,00.0,33.8,26.6,05.8,0000.0,0009.84,0001.51,0000.78
2021-12-13 09:13:00,,0824.5,5.00,0.00,24.8,24.0,00.0,33.8,26.6,05.8,0000.0,0008.99,0001.52,0000.77
2021-12-13 09:14:00,,0824.4,5.01,0.00,24.8,24.0,00.0,33.8,26.6,05.8,0000.0,0008.57,0001.53,0000.76
2021-12-13 09:15:00,,0824.5,4.99,0.00,24.8,24.0,00.0,33.8,26.6,05.8,0000.0,0008.06,0001.50,0000.76
2021-12-13 09:16:00,,0824.4,5.00,0.00,24.8,24.0,00.0,33.8,26.6,05.8,0000.0,0008.05,0001.46,0000.75
2021-12-13 09:17:00,,0824.5,5.02,0.00,24.8,24.0,00.0,33.8,26.6,05.8,0000.0,0007.89,0001.47,0000.75
2021-12-13 09:18:00,,0824.6,4.99,0.00,24.8,23.9,00.0,33.8,26.6,05.8,0000.0,0007.72,0001.42,0000.76
2021-12-13 09:19:00,,0824.4,5.01,0.00,24.8,24.0,00.0,33.8,26.6,05.8,0000.0,0007.41,0001.41,0000.76
2021-12-13 09:20:00,,0824.4,4.99,0.00,24.8,24.0,00.0,33.8,26.6,05.8,0000.0,0008.75,0001.39,0000.75
2021-12-13 09:21:00,,0824.4,5.01,0.00,24.8,24.0,00.0,33.8,26.6,05.8,0000.0,0008.55,0001.41,0000.75
2021-12-13 09:22:00,,0824.4,5.00,0.00,24.8,24.0,00.0,33.8,26.6,05.8,0000.0,0008.02,0001.45,0000.75
2021-12-13 09:23:00,,0824.4,4.99,0.00,24.8,24.0,00.0,33.8,26.6,05.8,0000.0,0008.04,0001.48,0000.75
2021-12-13 09:24:00,,0824.4,5.01,0.00,24.8,23.9,00.0,33.8,26.6,05.8,0000.0,0008.29,0001.50,0000.76
2021-12-13 09:25:00,,0824.7,4.99,0.00,24.8,23.9,00.0,33.8,26.6,05.8,0000.0,0008.61,0001.46,0000.76
2021-12-13 09:26:00,,0824.7,5.00,0.00,24.8,23.9,00.0,33.8,26.6,05.9,0000.0,0008.56,0001.45,0000.76
2021-12-13 09:27:00,,0824.6,5.01,0.00,24.8,23.9,00.0,33.8,26.6,05.9,0000.0,0008.65,0001.48,0000.77
2021-12-13 09:28:00,,0824.5,4.99,0.00,24.8,23.9,00.0,33.8,26.6,05.9,0000.0,0008.63,0001.46,0000.77
2021-12-13 09:29:00,,0824.7,5.01,0.00,24.8,23.9,00.0,33.8,26.6,05.9,0000.0,0008.96,0001.49,0000.76
2021-12-13 09:30:00,,0824.4,5.00,0.00,24.8,23.9,00.0,33.8,26.6,05.9,0000.0,0008.88,0001.49,0000.77
2021-12-13 09:31:00,,0824.5,5.01,0.00,24.8,23.9,00.0,33.8,26.6,05.9,0000.0,0007.66,0001.48,0000.78
2021-12-13 09:32:00,,0824.7,4.99,0.00,24.8,23.9,00.0,33.8,26.6,05.9,0000.0,0007.68,0001.44,0000.78
2021-12-13 09:33:00,,0825.0,4.99,0.00,24.8,23.9,00.0,33.8,26.6,05.9,0000.0,0006.97,0001.41,0000.79
2021-12-13 09:34:00,,0824.7,5.02,0.00,24.8,23.9,00.0,33.8,26.6,06.0,0000.0,0006.91,0001.41,0000.81
2021-12-13 09:35:00,,0824.6,5.00,0.00,24.8,23.9,00.0,33.7,26.6,06.0,0000.0,0007.21,0001.40,0000.82
2021-12-13 09:36:00,,0824.6,5.00,0.00,24.8,23.9,00.0,33.7,26.6,06.0,0000.0,0006.98,0001.45,0000.85
2021-12-13 09:37:00,,0824.6,5.00,0.00,24.8,23.9,00.0,33.7,26.6,06.0,0000.0,0007.63,0001.54,0000.87
2021-12-13 09:38:00,,0824.6,5.00,0.00,24.8,23.9,00.0,33.7,26.6,06.1,0000.0,0007.70,0001.56,0000.89
2021-12-13 09:39:00,,0824.7,5.00,0.00,24.8,23.9,00.0,33.7,26.6,06.1,0000.0,0007.69,0001.60,0000.92
2021-12-13 09:40:00,,0824.7,4.99,0.00,24.8,23.9,00.0,33.7,26.5,06.1,0000.0,0007.59,0001.59,0000.96
2021-12-13 09:41:00,,0824.7,5.00,0.00,24.7,23.8,00.0,33.7,26.5,06.1,0000.0,0008.40,0001.66,0000.98
2021-12-13 09:42:00,,0824.7,5.01,0.00,24.7,23.8,00.0,33.7,26.5,06.2,0000.0,0009.02,0001.72,0001.01
2021-12-13 09:43:00,,0824.6,4.99,0.00,24.7,23.8,00.0,33.7,26.5,06.2,0000.0,0009.03,0001.85,0001.04
2021-12-13 09:44:00,,0824.7,5.01,0.00,24.7,23.8,00.0,33.7,26.5,06.2,0000.0,0009.52,0001.93,0001.06
2021-12-13 09:45:00,,0824.7,5.00,0.00,24.7,23.8,00.0,33.7,26.5,06.2,0000.0,0009.25,0002.01,0001.08
2021-12-13 09:46:00,,0824.7,5.00,0.00,24.7,23.8,00.0,33.7,26.5,06.2,0000.0,0009.54,0002.10,0001.12
2021-12-13 09:47:00,,0824.7,4.99,0.00,24.7,23.8,00.0,33.7,26.5,06.2,0000.0,0010.32,0002.10,0001.13
2021-12-13 09:48:00,,0824.7,5.01,0.00,24.7,23.8,00.0,33.7,26.5,06.2,0000.0,0010.18,0002.08,0001.14
2021-12-13 09:49:00,,0824.7,4.98,0.00,24.7,23.8,00.0,33.7,26.5,06.1,0000.0,0010.08,0002.10,0001.16
2021-12-13 09:50:00,,0824.7,5.01,0.00,24.7,23.8,00.0,33.7,26.5,06.1,0000.0,0010.21,0002.15,0001.15
2021-12-13 09:51:00,,0824.7,4.98,0.00,24.7,23.8,00.0,33.7,26.5,06.1,0000.0,0009.95,0002.14,0001.14
2021-12-13 09:52:00,,0824.8,5.01,0.00,24.7,23.8,00.0,33.7,26.5,06.1,0000.0,0009.20,0002.08,0001.14
2021-12-13 09:53:00,,0824.7,5.00,0.00,24.7,23.8,00.0,33.7,26.5,06.1,0000.0,0009.04,0002.04,0001.14
2021-12-13 09:54:00,,0824.7,4.99,0.00,24.7,23.8,00.0,33.7,26.5,06.1,0000.0,0008.83,0002.01,0001.12
2021-12-13 09:55:00,,0824.7,5.01,0.00,24.7,23.8,00.0,33.7,26.5,06.0,0000.0,0008.45,0001.98,0001.11
2021-12-13 09:56:00,,0824.7,5.01,0.00,24.7,23.8,00.0,33.7,26.5,06.0,0000.0,0008.18,0001.92,0001.09
2021-12-13 09:57:00,,0824.7,5.00,0.00,24.7,23.8,00.0,33.7,26.5,06.0,0000.0,0008.53,0001.85,0001.06
2021-12-13 09:58:00,,0824.7,4.99,0.00,24.7,23.8,00.0,33.7,26.5,06.1,0000.0,0007.95,0001.78,0001.03
2021-12-13 09:59:00,,0824.8,5.00,0.00,24.7,23.8,00.0,33.7,26.4,06.1,0000.0,0007.64,0001.76,0001.03
